FLOCK 4Y 5

导读

FLOCK 4Y 5是美国Planet Labs公司FLOCK鸽群星座下的一颗SuperDove微型商业遥感卫星,于2023年1月3日发射,属于当月36颗FLOCK 4Y组网卫星之一。卫星配备八光谱波段,作为补充星增强星座在轨容量,可快速向客户提供高质量对地影像数据,服务农业、林业、城市监测等领域,提升全球对地观测重访能力与数据精度。

Basic Information
目录编号:
55028
目录名称:
FLOCK 4Y 5
国际标识:
2023-001V
轨道中心:
EARTH
卫星名称:
FLOCK 4Y 5
卫星全名:
--
卫星状态:
已陨落 最后检测时间 2025-08-23
发射日期:
2023-01-03 UTC
国别 :
美国 (US)
星等 :
--
Orbit Information
数据来源 国际轨道数据
星历时间: 2025-08-23T23:45:45+0800
轨道信息已过期338天
半长轴: 6540.705km
偏心率: 0.0015468
轨道倾角: 97.344°
近地点辐角 272.485°
升交点赤经 313.074°
平近点角 87.468°
近地点: 152.452km
远地点: 172.688km
周期: 87.740分钟
每日圈数: 16.412167
Detailed Information
使用方式:
暂无